Tracking 20369 objects as of 19-Feb-2020
HD Live streaming from Space Station
objects crossing your sky now

DMSP 5D-3 F18 DEB

Track DMSP 5D-3 F18 DEB now!
10-day predictions


NORAD ID: 36099
Int'l Code: 2009-057E
Perigee: 813.6 km
Apogee: 826.0 km
Inclination: 98.7 °
Period: 101.1 minutes
Semi major axis: 7190 km
RCS: 0.1565 m2 (medium)
Launch date: October 18, 2009
Source: United States (US)
Launch site: AIR FORCE WESTERN TEST RANGE (AFWTR)

Note: This is SATELLITE DEBRIS
aabbcc
Your satellite tracking list
Your tracking list is empty




NASA's NSSDC Master Catalog

Two Line Element Set (TLE):
1 36099U 09057E   20049.81349805  .00000140  00000-0  80748-4 0  9997
2 36099  98.7250 119.1596 0008633 256.6243 103.3973 14.23773690530129
Source of the keplerian elements: AFSPC